Flag for Myanmar Weather past 2 weeks in Mandalay, Myanmar

Now
75 °F

Passing clouds.


Feels Like: 75 °F
Forecast: 75 / 83 °F
Wind: 3 mph from Southwest

Location: Chiang Mai Airport

Current Time: Sep 19, 2014 at 4:58:18 AM

Latest Report: Sep 19, 2014 at 4:30 AM


Visibility: N/A

Pressure: 29.92 "Hg

Humidity: 89%

Dew point: 72 °F

Location of MandalayLocation

Historic Weather in Mandalay — Graph

°F

Mandalay temperature yesterday

Maximum temperature yesterday: 84 °F (at 2:00 PM)
Minimum temperature yesterday: 75 °F (at 3:00 PM)
Average temperature yesterday: 79 °F

Past Weeks' High & Low Weather Summary

 TemperatureHumidityPressure
High113 °F (Sep 6, 5:00 AM)94% (Sep 4, 3:00 AM)29.95 "Hg (Sep 4, 3:00 AM)
Low73 °F (Sep 16, 2:30 AM)27% (Sep 6, 5:00 AM)29.53 "Hg (Sep 16, 3:00 PM)
Average82 °F71%29.78 "Hg
* Reported Sep 4 2:30 AM — Sep 19 3:00 AM, Mandalay, Weather by CustomWeather, © 2014

Note: Actual official high and low records may vary slightly from our data, if they occured in-between our weather recording intervals... More about our weather records

Advertising

Mandalay weather history for previous 24 hours

 ConditionsComfort  
Time TempWeatherWind HumidityBarometerVisibility
3:00 AM
Sep 19
77 °FPassing clouds.2 mph89%29.92 "HgN/A
1:30 AM75 °FPassing clouds.No wind89%29.92 "HgN/A
1:00 AM75 °FPassing clouds.3 mph89%29.92 "HgN/A
12:30 AM75 °FPassing clouds.2 mph94%29.92 "HgN/A
12:00 AM77 °FPassing clouds.No wind89%29.95 "HgN/A
11:30 PM
Sep 18
75 °FPassing clouds.3 mph89%29.95 "HgN/A
11:00 PM77 °FPassing clouds.No wind89%29.95 "HgN/A
10:30 PM77 °FPassing clouds.2 mph89%29.95 "HgN/A
10:00 PM77 °FPassing clouds.2 mph89%29.95 "HgN/A
9:30 PM77 °FPassing clouds.No wind89%29.95 "HgN/A
9:00 PM77 °FPassing clouds.2 mph89%29.95 "HgN/A
8:30 PM77 °FPassing clouds.2 mph89%29.92 "HgN/A
8:00 PM77 °FPassing clouds.1 mph89%29.92 "HgN/A
7:30 PM77 °FPassing clouds.2 mph83%29.92 "HgN/A
7:00 PM77 °FPassing clouds.3 mph89%29.89 "HgN/A
6:00 PM77 °FPassing clouds.2 mph89%29.86 "HgN/A
5:00 PM77 °FLight rain. Partly sunny.5 mph89%29.86 "HgN/A
4:30 PM77 °FLight rain. Partly sunny.3 mph89%29.83 "Hg5 mi
4:00 PM77 °FLight rain. Broken clouds.3 mph89%29.83 "Hg5 mi
3:30 PM75 °FRain. Partly sunny.3 mph89%29.83 "Hg4 mi
3:00 PM75 °FThunderstorms. Partly sunny.8 mph89%29.83 "Hg2 mi
2:30 PM84 °FThunderstorms. Partly sunny.8 mph66%29.80 "HgN/A
2:00 PM84 °FPartly sunny.7 mph62%29.80 "HgN/A
1:30 PM82 °FPartly sunny.6 mph70%29.83 "HgN/A
1:00 PM82 °FPartly sunny.5 mph70%29.83 "HgN/A
12:30 PM82 °FPartly sunny.7 mph66%29.83 "HgN/A
12:00 PM82 °FPartly sunny.7 mph66%29.86 "HgN/A
11:30 AM82 °FPartly sunny.7 mph66%29.86 "HgN/A
11:00 AM82 °FPartly sunny.5 mph66%29.89 "HgN/A
10:30 AM82 °FPartly sunny.3 mph66%29.89 "HgN/A
10:00 AM82 °FPartly sunny.3 mph66%29.89 "HgN/A
9:30 AM82 °FPartly sunny.7 mph66%29.89 "HgN/A
9:00 AM82 °FPartly sunny.7 mph66%29.89 "HgN/A
8:30 AM81 °FPartly sunny.6 mph70%29.89 "HgN/A
8:00 AM81 °FPartly sunny.6 mph70%29.86 "HgN/A
7:30 AM81 °FPartly sunny.5 mph70%29.86 "HgN/A
7:00 AM79 °FPartly sunny.5 mph74%29.83 "HgN/A
6:30 AM79 °FPartly sunny.6 mph74%29.83 "HgN/A
6:00 AM79 °FPartly sunny.6 mph74%29.80 "HgN/A
5:30 AM79 °FPassing clouds.5 mph74%29.80 "HgN/A
5:00 AM79 °FPassing clouds.5 mph74%29.80 "HgN/A
4:30 AM79 °FPassing clouds.5 mph74%29.77 "HgN/A
4:00 AM79 °FPassing clouds.3 mph74%29.77 "HgN/A
Weather by CustomWeather, © 2014

See weather overviewHow to use our weather pages